This is the latest recevied weather packets stored in our database for station/object KC8SWY-15. If no packets are shown the sender has not sent any weather packets the latest 10 day(s).
| Time | Temp. | Humidity | Pressure | Rain* | Wind** | Luminosity | Snow |
|---|---|---|---|---|---|---|---|
| 1788585926 | 21.11° C | 93% | 1012.9 hPa | 4.83 mm | - | - | - |
| 1788585625 | 21.11° C | 94% | 1013 hPa | 5.84 mm | - | - | - |
| 1788585398 | 21.11° C | 94% | 1013.5 hPa | 6.6 mm | - | - | - |
| 1788585325 | 21.11° C | 94% | 1013.5 hPa | 6.6 mm | - | - | - |
| 1788585026 | 21.11° C | 93% | 1012.9 hPa | 12.95 mm | - | - | - |
| 1788584726 | 21.11° C | 93% | 1013 hPa | 14.48 mm | - | - | - |
| 1788584426 | 21.11° C | 93% | 1013.1 hPa | 14.48 mm | - | - | - |
| 1788584126 | 21.67° C | 93% | 1012.8 hPa | 14.22 mm | - | - | - |
| 1788583826 | 21.67° C | 93% | 1012.6 hPa | 14.22 mm | - | - | - |
| 1788583526 | 21.67° C | 93% | 1012.7 hPa | 13.97 mm | - | - | - |
| 1788583226 | 21.67° C | 93% | 1013.3 hPa | 13.97 mm | - | - | - |
| 1788582926 | 22.22° C | 93% | 1013.4 hPa | 13.46 mm | - | - | - |
| 1788582626 | 22.22° C | 93% | 1013.4 hPa | 12.45 mm | - | - | - |
| 1788582326 | 22.22° C | 92% | 1012.2 hPa | 11.43 mm | - | - | - |
| 1788582026 | 22.78° C | 91% | 1012.7 hPa | 9.91 mm | - | - | - |
| 1788581726 | 22.78° C | 90% | 1013.6 hPa | 7.87 mm | - | - | - |
| 1788581426 | 23.33° C | 90% | 1014.1 hPa | 1.52 mm | - | - | - |
| 1788581126 | 23.33° C | 89% | 1013.8 hPa | 0 mm | - | - | - |
| 1788580826 | 23.33° C | 89% | 1013.1 hPa | 0 mm | - | - | - |
| 1788580526 | 23.33° C | 89% | 1012.6 hPa | 0 mm | - | - | - |
| 1788580226 | 23.33° C | 89% | 1012.7 hPa | 0 mm | - | - | - |
| 1788579926 | 23.33° C | 89% | 1012.5 hPa | 0 mm | - | - | - |
| 1788579626 | 23.33° C | 88% | 1012.6 hPa | 0 mm | - | - | - |
| 1788579326 | 23.33° C | 88% | 1012.7 hPa | 0 mm | - | - | - |
| 1788579026 | 23.33° C | 88% | 1012.8 hPa | 0 mm | - | - | - |
* Rain latest hour (hover to see other rain measurements)
** Current wind speed in m/s (hover to see current wind gust speed)